Wind_Speed
43 43 44 44 44 44 45 45 45 45 45 45 45 45 45 45 45 45 45 44 44 44 44 44 43 43 43 43 43 43 42 42 42 42 41 41 40 39 39 38 38 39 39 38 38 37 37 37 37 37 37 37
45 45 46 46 45 45 46 46 46 46 47 47 48 48 48 47 47 47 47 47 47 47 47 46 46 46 46 46 46 46 46 46 46 45 45 44 44 43 42 42 42 42 42 42 42 41 40 40 40 40 40 40
48 48 49 48 48 47 48 48 49 49 49 49 49 50 50 49 49 49 49 49 49 49 49 49 49 49 49 49 49 49 49 49 49 49 49 48 47 47 46 46 46 46 46 46 45 44 44 44 44 43 43 43
50 51 52 52 51 51 50 51 51 51 52 52 51 52 52 52 52 52 51 51 51 51 51 51 52 52 52 52 51 51 51 51 52 51 51 51 51 51 50 49 49 49 49 49 49 48 47 48 48 47 47 47
49 51 52 53 54 54 54 53 54 54 54 54 54 54 54 55 55 54 54 54 54 53 53 54 54 54 54 54 54 54 54 54 54 54 54 54 54 54 53 53 53 52 52 52 52 52 51 51 51 51 51 50
47 48 50 52 53 54 55 55 56 56 57 57 57 57 57 57 57 56 56 56 56 56 56 56 56 56 56 56 56 56 56 56 56 56 56 56 56 56 55 55 55 55 55 55 55 55 55 55 55 55 54 54
46 47 48 49 51 52 54 55 56 57 57 58 58 59 59 59 58 58 58 58 58 58 59 58 58 58 58 58 59 59 59 59 59 59 59 58 58 58 58 57 57 57 57 58 58 57 57 57 57 57 57 57
47 48 49 50 50 51 51 53 54 56 57 58 59 59 60 60 60 60 60 60 60 60 61 61 61 61 61 61 61 61 61 61 61 61 61 61 61 61 60 60 59 59 59 59 59 59 59 59 59 59 59 59
49 50 51 52 52 52 52 52 53 54 55 57 59 60 61 61 61 61 62 62 61 62 62 62 63 63 63 63 63 64 64 64 64 64 64 64 64 63 63 62 61 61 61 61 61 61 60 61 61 61 61 61
49 50 52 53 53 54 54 54 55 54 54 55 57 60 61 62 63 63 63 63 63 63 64 64 64 65 65 65 65 66 66 66 66 66 66 66 66 66 65 65 64 63 63 63 63 63 62 62 62 62 62 62
47 48 50 52 53 54 55 56 56 56 56 56 56 57 58 60 62 64 65 65 64 65 65 65 66 67 67 67 67 67 68 68 68 68 68 68 68 68 67 67 66 66 66 66 65 65 65 65 64 63 63 63
46 47 48 50 51 53 54 55 56 57 57 58 58 58 57 57 59 61 63 64 65 66 66 66 67 68 68 68 68 68 69 69 69 69 69 69 69 69 69 69 68 68 68 68 68 67 67 67 66 65 65 65
47 47 47 48 50 51 52 53 54 56 56 57 59 59 58 58 59 59 60 61 63 65 66 67 68 69 69 70 70 70 70 70 70 70 70 70 70 70 70 70 70 70 69 69 69 68 68 68 67 67 67 66
49 49 49 49 50 51 52 52 53 54 55 56 57 58 58 58 58 59 59 59 60 62 64 66 68 68 70 70 70 71 71 71 71 71 71 71 71 71 70 70 71 71 70 70 70 69 69 69 68 68 68 68
53 52 52 52 52 52 53 53 54 54 54 54 55 57 57 56 57 58 58 58 59 60 61 63 65 66 68 69 69 71 71 71 72 72 72 72 72 71 71 71 71 71 71 71 70 70 69 69 69 69 68 68
57 57 56 55 54 55 55 56 56 56 56 55 55 56 57 56 55 56 56 56 57 58 59 60 61 62 64 65 67 68 70 71 71 72 72 72 71 71 71 71 70 70 71 70 70 70 69 69 69 69 69 68
60 61 61 60 59 58 58 58 58 58 58 58 57 57 58 57 56 56 56 56 56 57 57 58 59 59 60 62 63 64 66 68 68 69 69 69 69 69 70 70 69 69 69 69 69 68 68 68 68 68 67 67
61 63 64 64 63 62 61 61 60 61 61 60 60 60 60 59 58 57 57 57 57 57 57 58 58 57 58 59 60 61 63 64 65 65 65 65 65 66 67 67 67 67 67 67 66 66 66 66 66 66 66 66
61 63 65 67 67 67 65 64 63 63 63 63 63 63 62 62 61 61 60 60 59 59 58 58 58 57 58 59 59 60 61 62 63 62 62 60 60 62 62 63 63 63 64 64 64 63 64 64 64 64 64 64
62 63 65 67 69 70 69 68 67 66 65 65 65 65 65 65 64 64 64 63 62 61 60 59 59 59 59 60 60 60 61 62 61 60 60 58 57 58 59 59 60 60 61 62 62 61 62 62 63 63 63 64
63 64 65 67 69 71 72 72 70 69 67 66 67 67 67 67 67 66 67 66 66 64 63 62 61 61 61 61 61 61 61 62 61 60 59 57 55 56 57 58 58 58 59 61 61 61 61 62 62 63 63 63
64 65 66 68 69 71 72 73 73 72 71 70 69 69 69 69 69 69 68 68 68 68 66 65 64 63 63 62 62 63 63 63 63 62 59 56 55 56 57 57 57 58 59 60 60 60 60 61 62 62 63 63
66 66 67 68 70 71 73 74 75 74 74 73 72 71 71 71 71 71 70 70 70 70 69 68 67 66 66 65 64 64 65 65 65 64 61 58 57 58 58 58 57 57 58 59 59 59 60 60 60 61 61 61
68 68 69 70 71 72 74 75 76 76 75 74 74 73 73 73 73 72 72 72 72 72 72 71 70 69 68 67 66 66 67 67 67 66 64 62 61 60 60 58 57 57 57 58 59 60 60 60 61 61 61 60
73 73 72 72 73 74 75 77 78 78 78 77 75 75 74 74 74 74 74 73 73 74 74 74 73 72 71 69 68 68 68 68 69 69 68 66 64 63 62 60 59 57 57 57 59 60 61 61 62 61 61 60
78 78 77 76 76 77 78 78 79 80 81 81 79 78 76 76 76 75 75 74 74 74 75 75 75 74 73 72 70 70 70 71 71 71 71 69 67 66 64 63 62 59 57 57 58 60 61 62 61 60 60 59
81 81 80 79 79 80 81 81 81 81 82 82 82 81 80 78 77 76 75 74 73 74 75 75 76 76 75 73 72 71 72 72 73 73 72 71 70 70 68 66 64 60 57 57 57 59 60 60 60 60 58 57
85 84 83 82 81 81 83 84 84 84 84 84 84 83 82 81 79 78 77 76 75 74 74 75 76 77 76 75 73 72 73 74 74 74 74 73 73 72 70 68 65 60 57 56 57 58 58 59 60 59 57 57
90 89 87 85 84 83 84 86 87 87 87 87 87 85 84 84 82 81 79 78 77 77 76 76 77 77 77 77 75 72 73 75 76 75 74 74 75 75 73 70 66 61 59 58 60 61 60 60 60 60 59 59
92 92 91 89 88 85 84 87 89 90 90 90 89 89 88 86 85 85 83 81 80 79 79 78 78 78 77 78 78 76 75 77 77 75 76 77 78 78 75 73 69 63 60 60 62 63 63 62 62 61 62 61
91 92 93 93 92 90 87 88 90 92 93 93 91 91 90 89 88 88 86 84 82 81 80 80 79 79 79 80 80 79 78 79 78 77 78 80 81 80 78 76 71 65 62 62 63 64 64 63 63 63 63 63
Wind_Direction
257 258 258 258 257 257 256 256 256 255 255 254 253 252 252 252 251 251 251 251 251 251 251 251 251 252 252 252 252 253 253 253 253 253 253 253 253 253 253 253 253 254 256 257 258 259 258 258 257 257 257 257
260 260 260 259 259 259 259 258 257 257 257 256 255 255 254 254 253 253 252 252 252 252 252 252 252 252 252 252 253 253 253 253 253 253 253 253 253 253 253 253 253 253 255 256 257 258 258 258 257 257 257 256
263 263 262 261 260 259 259 258 257 257 257 257 257 257 256 256 255 254 254 253 253 253 253 253 253 253 253 253 253 253 253 254 253 253 254 253 253 253 253 253 253 253 253 254 255 256 257 257 256 256 256 256
267 265 263 262 261 259 259 258 257 257 256 256 257 257 257 256 256 255 255 254 254 254 253 253 253 253 253 254 254 254 254 254 254 254 254 254 254 254 254 253 253 253 253 253 254 255 255 256 256 256 256 256
270 269 267 264 262 260 259 258 257 256 256 256 255 255 255 255 255 255 254 254 254 254 254 254 254 254 254 254 254 254 255 255 255 255 255 255 254 254 254 254 253 253 253 253 253 254 254 254 255 255 255 255
271 270 270 269 268 266 263 260 257 256 256 255 254 254 254 254 253 253 253 253 253 253 253 253 254 254 254 254 255 255 255 255 255 255 255 255 255 255 254 254 254 254 253 253 254 254 254 254 254 255 255 255
271 269 269 269 269 269 269 267 263 260 258 256 255 254 253 253 253 252 252 252 252 252 252 253 253 253 254 254 255 255 255 255 255 255 255 255 255 255 255 255 255 255 254 254 254 254 254 254 254 255 255 255
271 270 268 268 267 267 268 269 269 268 265 261 259 257 255 254 253 252 252 251 251 251 251 252 252 252 253 253 254 254 255 255 255 255 256 256 256 256 255 255 255 255 255 255 255 255 255 255 255 255 255 255
271 270 269 268 267 266 265 265 266 268 268 267 265 262 259 257 256 255 254 252 252 252 251 251 251 251 252 252 253 253 254 254 255 255 255 256 256 256 256 256 256 256 256 256 256 256 256 256 256 256 256 256
272 271 271 270 269 267 266 265 264 264 265 266 267 266 264 262 260 258 257 255 254 253 252 252 252 251 251 252 252 252 253 253 254 254 255 255 255 256 256 256 256 256 256 257 257 257 257 256 256 256 256 256
273 272 272 271 270 269 268 266 265 264 264 263 264 266 266 266 264 262 260 258 257 256 255 253 253 252 252 251 252 252 252 252 253 253 254 254 255 255 255 256 256 256 256 257 257 257 257 257 257 257 257 257
272 272 272 271 270 269 269 267 266 265 264 263 263 263 263 264 265 265 264 263 261 259 258 257 255 255 254 253 253 253 253 253 253 253 253 254 254 255 255 255 255 256 256 256 256 257 257 257 257 258 258 258
271 271 271 271 271 270 269 268 267 266 265 264 263 263 262 262 263 264 265 265 264 262 261 260 259 258 257 256 256 256 256 255 256 255 255 255 255 255 256 256 256 256 256 256 256 257 257 258 258 258 258 258
270 269 269 269 270 270 269 269 268 267 266 265 264 263 263 262 262 262 262 262 262 263 263 262 261 261 260 259 258 258 258 258 258 258 257 257 257 257 257 257 257 257 257 257 257 258 258 259 259 259 259 259
271 269 268 268 268 268 269 269 268 268 267 266 265 264 263 263 263 263 262 262 262 262 263 263 263 263 262 261 261 260 259 259 259 259 259 259 259 259 259 259 259 259 258 259 259 259 259 260 260 260 260 260
274 271 269 268 267 267 267 268 268 268 267 266 265 264 264 263 262 263 262 262 262 262 263 263 264 263 264 264 263 263 262 261 261 261 260 260 260 260 260 260 260 260 260 260 260 260 260 261 261 260 260 260
276 273 271 269 268 267 266 266 267 267 267 266 266 265 264 263 262 262 261 261 261 262 262 263 264 264 264 264 265 265 265 265 264 264 264 264 263 263 263 263 262 262 262 262 262 262 262 261 261 261 261 261
276 274 272 270 269 267 266 265 265 266 266 266 266 265 265 264 263 262 261 260 259 259 260 261 262 263 263 264 264 265 265 266 266 266 266 266 267 267 266 266 265 265 265 264 263 263 263 263 262 262 262 262
273 273 272 271 269 268 266 264 264 264 265 265 265 265 264 264 263 262 261 260 259 258 258 259 259 260 262 263 263 264 265 265 265 265 266 266 267 267 268 268 267 266 266 265 264 264 264 263 263 263 262 262
270 270 270 270 269 268 266 264 263 263 263 263 263 264 264 263 263 263 262 261 260 259 258 258 258 259 260 261 262 263 264 264 264 264 264 264 264 265 266 266 266 265 265 264 263 262 262 262 262 261 261 261
267 266 266 267 267 267 266 264 263 262 262 262 263 263 263 263 262 262 262 262 261 260 259 258 258 258 259 260 261 262 263 263 263 263 263 262 263 263 264 263 263 263 263 262 261 261 260 261 261 261 260 260
263 263 263 263 264 264 264 263 262 261 261 261 261 262 262 261 261 261 261 261 261 260 259 258 258 258 258 258 259 260 261 262 262 262 262 261 261 262 262 262 262 261 261 261 261 260 260 260 261 261 261 261
262 260 259 259 260 261 261 261 261 260 260 260 260 261 261 261 260 260 260 260 260 260 259 258 257 257 257 258 258 259 260 260 261 261 261 261 261 261 261 260 260 261 260 261 261 260 260 260 260 260 260 260
265 262 259 257 257 257 257 258 258 258 258 258 259 259 260 260 260 259 259 259 259 259 258 257 256 256 256 256 257 257 258 259 260 260 260 260 259 259 259 259 259 260 261 261 261 260 260 259 258 257 257 257
266 264 262 260 257 256 255 255 255 255 256 256 256 256 257 258 258 258 258 258 258 258 257 257 256 255 255 256 256 256 257 257 258 259 259 259 258 258 258 258 259 260 261 261 260 260 260 258 258 257 256 255
266 265 263 261 259 257 255 254 253 253 253 254 254 254 254 255 256 257 257 257 257 256 256 256 256 255 255 255 256 256 256 256 257 257 258 259 259 258 257 258 259 261 262 261 260 259 258 257 257 256 256 255
266 264 262 261 259 258 256 254 252 252 252 253 253 253 252 253 254 255 255 255 254 254 254 255 255 255 255 255 256 255 255 256 256 257 258 258 258 258 257 258 259 261 262 261 260 259 257 257 256 255 255 255
268 265 262 260 258 257 256 254 252 251 251 251 251 252 252 251 251 251 251 252 252 252 252 252 253 254 254 255 256 255 255 255 255 256 257 257 257 257 257 258 259 260 260 259 259 258 258 257 255 255 255 255
269 266 263 261 258 257 256 254 252 250 250 250 250 250 250 250 249 249 249 249 250 250 250 251 251 252 252 254 255 255 253 253 253 254 255 256 256 257 256 257 258 258 257 258 260 260 259 258 257 256 255 254
269 267 264 261 259 257 256 254 252 250 249 248 249 249 249 248 247 247 248 248 248 248 249 249 250 251 251 251 252 254 253 252 252 252 252 253 255 256 256 256 256 256 256 258 261 261 260 259 258 257 256 255
268 267 265 262 260 257 255 252 251 249 248 247 246 247 248 248 247 246 246 247 247 247 247 248 249 250 250 248 249 252 253 253 253 251 250 252 254 256 256 255 255 255 255 257 261 263 261 260 259 258 257 256
Height
5709 5709 5710 5710 5710 5711 5711 5711 5712 5712 5712 5712 5712 5712 5713 5713 5713 5714 5715 5715 5716 5717 5718 5719 5720 5721 5722 5722 5723 5724 5725 5725 5726 5727 5727 5728 5729 5730 5731 5731 5731 5730 5731 5732 5733 5735 5736 5737 5738 5739 5740 5741
5705 5705 5705 5705 5705 5706 5706 5706 5707 5707 5707 5707 5707 5707 5707 5708 5708 5709 5709 5710 5711 5712 5713 5714 5715 5715 5716 5717 5718 5719 5720 5721 5721 5722 5723 5724 5725 5725 5726 5727 5727 5727 5727 5728 5728 5730 5732 5732 5733 5734 5736 5737
5701 5701 5700 5700 5700 5701 5701 5701 5701 5701 5701 5701 5701 5702 5702 5702 5703 5703 5704 5705 5705 5706 5707 5708 5709 5710 5711 5712 5713 5714 5714 5715 5716 5717 5718 5719 5720 5720 5721 5722 5723 5723 5723 5723 5724 5726 5727 5727 5728 5730 5731 5732
5696 5695 5695 5695 5695 5695 5695 5695 5695 5695 5695 5695 5696 5696 5696 5696 5697 5697 5698 5699 5699 5700 5701 5702 5703 5704 5705 5706 5707 5708 5709 5709 5710 5711 5712 5713 5714 5715 5716 5717 5718 5718 5718 5719 5719 5720 5722 5723 5723 5724 5726 5727
5690 5690 5689 5689 5689 5689 5689 5689 5688 5688 5688 5688 5689 5689 5689 5689 5690 5691 5692 5693 5693 5694 5695 5696 5697 5698 5699 5700 5701 5702 5703 5703 5704 5705 5706 5707 5708 5709 5710 5711 5712 5713 5713 5713 5714 5715 5717 5717 5718 5719 5720 5721
5684 5683 5683 5683 5683 5683 5683 5682 5682 5681 5681 5681 5681 5681 5682 5681 5682 5684 5685 5686 5687 5688 5688 5689 5691 5692 5693 5693 5694 5696 5696 5697 5698 5699 5700 5701 5702 5703 5704 5705 5706 5707 5707 5708 5708 5710 5711 5712 5713 5714 5715 5716
5677 5677 5677 5677 5677 5677 5677 5676 5676 5676 5675 5674 5674 5674 5674 5674 5675 5676 5677 5678 5679 5680 5682 5683 5684 5685 5686 5687 5688 5689 5689 5690 5691 5692 5693 5694 5695 5696 5698 5699 5700 5700 5701 5702 5703 5704 5705 5706 5707 5708 5709 5710
5671 5671 5671 5670 5670 5670 5670 5670 5670 5670 5670 5669 5668 5668 5668 5668 5668 5668 5670 5671 5672 5673 5675 5676 5676 5678 5679 5680 5681 5682 5683 5684 5684 5685 5686 5687 5688 5689 5691 5692 5693 5694 5695 5695 5697 5698 5699 5700 5701 5702 5703 5704
5666 5665 5664 5664 5663 5663 5663 5663 5663 5663 5663 5663 5663 5662 5662 5662 5662 5662 5663 5665 5665 5665 5667 5668 5669 5670 5672 5673 5674 5674 5675 5677 5677 5678 5679 5680 5681 5682 5684 5686 5686 5687 5688 5689 5690 5692 5693 5694 5695 5696 5697 5698
5659 5659 5658 5657 5657 5657 5657 5656 5655 5655 5656 5656 5656 5655 5656 5656 5656 5656 5657 5658 5659 5659 5660 5661 5661 5663 5665 5665 5666 5667 5668 5669 5670 5671 5672 5673 5674 5675 5677 5678 5679 5681 5681 5682 5683 5685 5686 5687 5688 5689 5690 5692
5653 5652 5651 5650 5650 5650 5649 5649 5649 5648 5649 5648 5648 5648 5648 5649 5649 5650 5650 5652 5652 5652 5653 5654 5654 5655 5657 5658 5658 5658 5659 5660 5661 5663 5664 5665 5666 5667 5669 5671 5672 5673 5674 5675 5676 5677 5678 5679 5681 5682 5683 5685
5646 5646 5645 5643 5642 5642 5642 5641 5641 5641 5641 5640 5640 5640 5641 5641 5642 5642 5643 5645 5645 5644 5645 5647 5647 5648 5649 5650 5650 5650 5651 5652 5653 5654 5656 5657 5658 5659 5661 5663 5664 5665 5666 5667 5668 5669 5670 5672 5673 5675 5676 5678
5640 5639 5638 5637 5636 5635 5635 5634 5633 5633 5633 5632 5632 5633 5633 5634 5634 5634 5635 5636 5637 5637 5638 5639 5640 5641 5641 5642 5643 5643 5644 5645 5645 5646 5648 5650 5651 5652 5653 5655 5656 5658 5659 5660 5661 5662 5663 5664 5666 5667 5669 5670
5633 5632 5631 5630 5629 5628 5628 5627 5626 5626 5625 5625 5624 5625 5625 5626 5626 5626 5627 5628 5629 5629 5630 5630 5632 5633 5633 5634 5635 5636 5636 5637 5638 5639 5641 5643 5644 5645 5646 5647 5649 5650 5651 5652 5653 5655 5656 5657 5658 5660 5661 5662
5626 5625 5624 5623 5622 5621 5620 5620 5620 5619 5618 5617 5617 5617 5617 5618 5618 5618 5618 5619 5620 5621 5621 5622 5623 5625 5625 5626 5627 5627 5628 5629 5630 5631 5633 5635 5636 5637 5638 5639 5641 5642 5643 5644 5645 5647 5648 5649 5651 5652 5653 5654
5618 5617 5616 5615 5615 5614 5613 5612 5612 5611 5610 5610 5609 5609 5609 5610 5610 5609 5610 5611 5611 5612 5613 5614 5615 5616 5617 5618 5619 5620 5620 5621 5622 5623 5625 5627 5628 5629 5630 5631 5633 5634 5635 5636 5637 5639 5640 5642 5643 5644 5645 5647
5610 5610 5608 5608 5607 5606 5605 5605 5604 5603 5603 5602 5601 5601 5601 5602 5602 5602 5602 5602 5603 5604 5605 5605 5606 5608 5609 5610 5611 5612 5612 5613 5614 5615 5617 5620 5621 5622 5623 5623 5625 5626 5627 5629 5630 5631 5632 5633 5635 5636 5638 5639
5602 5601 5600 5599 5598 5597 5597 5597 5596 5595 5595 5594 5594 5593 5593 5594 5594 5594 5593 5594 5594 5595 5596 5597 5598 5600 5601 5602 5603 5604 5604 5604 5606 5608 5610 5612 5613 5614 5615 5616 5618 5619 5619 5620 5622 5623 5624 5625 5627 5628 5630 5631
5593 5592 5590 5589 5589 5588 5588 5588 5587 5587 5586 5586 5585 5585 5585 5586 5586 5586 5585 5585 5586 5586 5588 5588 5590 5592 5593 5594 5595 5596 5596 5596 5598 5600 5602 5604 5605 5606 5607 5608 5609 5611 5611 5612 5614 5615 5615 5616 5618 5620 5621 5622
5584 5583 5582 5580 5579 5578 5578 5578 5578 5578 5577 5577 5577 5576 5577 5577 5577 5578 5577 5577 5577 5578 5580 5580 5581 5583 5584 5585 5586 5588 5588 5588 5590 5592 5594 5596 5598 5598 5599 5600 5601 5603 5603 5603 5605 5607 5607 5608 5609 5611 5612 5613
5573 5572 5571 5570 5569 5568 5568 5567 5567 5567 5568 5568 5568 5567 5568 5568 5568 5569 5568 5568 5569 5569 5571 5572 5573 5574 5575 5576 5578 5579 5579 5580 5582 5584 5586 5588 5590 5591 5591 5592 5593 5594 5595 5595 5596 5598 5600 5600 5601 5603 5604 5605
5561 5560 5559 5559 5558 5558 5557 5556 5556 5557 5557 5557 5558 5558 5558 5559 5559 5559 5560 5560 5560 5561 5562 5564 5564 5565 5566 5568 5570 5570 5571 5573 5573 5575 5578 5581 5582 5583 5583 5584 5585 5586 5587 5587 5588 5591 5593 5593 5594 5596 5597 5598
5550 5548 5547 5547 5546 5546 5545 5545 5545 5545 5546 5546 5547 5547 5548 5549 5549 5550 5550 5551 5551 5551 5553 5554 5555 5556 5557 5559 5562 5562 5562 5564 5565 5567 5570 5572 5574 5575 5575 5576 5577 5578 5579 5580 5581 5583 5584 5585 5587 5588 5589 5590
5538 5536 5535 5535 5534 5534 5533 5533 5534 5534 5534 5535 5536 5536 5537 5538 5539 5540 5540 5541 5542 5542 5543 5545 5546 5547 5547 5550 5553 5554 5554 5556 5558 5559 5562 5564 5565 5566 5566 5567 5570 5571 5572 5573 5574 5574 5576 5577 5578 5579 5580 5582
5526 5524 5523 5523 5522 5521 5521 5521 5521 5522 5522 5523 5525 5525 5526 5527 5528 5529 5530 5531 5532 5533 5534 5535 5536 5537 5538 5540 5544 5546 5546 5548 5549 5550 5552 5554 5555 5558 5559 5559 5561 5564 5565 5566 5566 5567 5568 5569 5569 5571 5572 5574
5512 5511 5510 5510 5509 5508 5508 5508 5508 5509 5509 5510 5513 5514 5515 5517 5517 5519 5520 5521 5522 5523 5524 5525 5526 5527 5529 5531 5534 5537 5538 5539 5540 5541 5543 5545 5547 5549 5550 5551 5553 5556 5557 5558 5559 5559 5559 5560 5562 5564 5565 5567
5498 5496 5496 5495 5495 5495 5495 5495 5495 5495 5496 5497 5500 5502 5503 5505 5507 5508 5510 5511 5513 5514 5516 5517 5517 5518 5520 5521 5524 5527 5529 5530 5531 5532 5534 5537 5538 5540 5541 5542 5544 5547 5550 5551 5551 5550 5551 5554 5555 5556 5559 5562
5482 5481 5481 5480 5480 5481 5482 5483 5483 5483 5483 5484 5486 5489 5491 5493 5496 5498 5499 5501 5502 5504 5506 5508 5508 5509 5511 5512 5514 5517 5519 5521 5522 5523 5525 5528 5529 5530 5532 5534 5536 5539 5541 5542 5542 5543 5545 5546 5547 5550 5554 5555
5463 5464 5465 5465 5465 5466 5468 5469 5470 5471 5470 5471 5473 5476 5478 5481 5483 5486 5488 5490 5492 5494 5496 5498 5499 5500 5502 5502 5504 5507 5510 5511 5513 5514 5516 5518 5519 5520 5523 5525 5527 5530 5533 5534 5534 5535 5537 5538 5540 5544 5545 5547
5444 5444 5446 5447 5449 5451 5453 5454 5456 5457 5457 5458 5460 5463 5465 5468 5471 5473 5476 5478 5480 5483 5485 5487 5489 5490 5492 5493 5494 5497 5500 5501 5503 5505 5507 5509 5510 5511 5514 5515 5517 5521 5524 5526 5525 5526 5529 5531 5533 5535 5535 5538
5426 5425 5426 5427 5429 5434 5436 5437 5440 5441 5443 5445 5447 5449 5452 5455 5458 5460 5464 5467 5469 5471 5474 5476 5478 5480 5482 5484 5485 5487 5490 5492 5494 5496 5498 5500 5501 5502 5504 5505 5508 5512 5515 5517 5517 5519 5521 5523 5525 5526 5527 5530